254P/McNaught (2000)

Japanese version
Home page
Updated on November 3, 2020

---------------------------------------------------------------------

* Profile

* Orbital Elements

Epoch 2000 Oct. 23.0 TT = JDT 2451840.5                                         
T 2000 Oct.  9.30023 TT                                 Rudenko                 
q   3.1649602            (2000.0)            P               Q                  
n   0.09910918     Peri.  220.07927     +0.90783982     +0.07666622             
a   4.6244504      Node   130.18640     -0.07718766     +0.99689743             
e   0.3156030      Incl.   32.65836     -0.41215158     -0.01782725             
P   9.94                                                                        
From 166 observations 1980 Oct. 5-2020 Sept. 23, mean residual 0".7.            

* Magnitudes Graph

        m1 = 10.5 + 5 log d + 10.0 log r(t - 200)

---------------------------------------------------------------------

The orbital elements are published on M.P.E.C. 2020-S188.
The magnitudes graphs are made with Comet for Windows.

---------------------------------------------------------------------

Copyright(C) Seiichi Yoshida (comet@aerith.net). All rights reserved.